Вернуться в каталог

FENGYUN 1C DEB

АктивенSSO
NORAD 30680·DEBRIS·🇨🇳 China

Запущен May 10, 1999 с Taiyuan Satellite Launch Center

Loading…

Ближайшие Пролёты (ближайшие 24 часа)

TLE

СвежийSource: Space-Track

Эпоха: Sep 14, 2026, 01:43 UTC

1 30680U 99025AQN 26257.07205037  .00003247  00000-0  32910-2 0  9991
2 30680  99.6464 299.5147 0317164 193.0695 166.2082 13.57818629959883

Отслеживайте FENGYUN 1C DEB в реальном времени с AllMySat

Download on the App Store